This is the latest recevied weather packets stored in our database for station/object ON7SD-5. If no packets are shown the sender has not sent any weather packets the latest 1 day(s).
| Time | Temp. | Humidity | Pressure | Rain* | Wind** | Luminosity | Snow |
|---|---|---|---|---|---|---|---|
| 1778005326 | 13.89° C | 72% | 1007.8 hPa | 0 mm | 0.89 m/s, 27° | 47 W/m² | - |
| 1778005026 | 14.44° C | 72% | 1007.8 hPa | 0 mm | 0.45 m/s, 77° | 56 W/m² | - |
| 1778004726 | 14.44° C | 72% | 1007.7 hPa | 0 mm | 0.89 m/s, 78° | 58 W/m² | - |
| 1778004426 | 14.44° C | 71% | 1007.7 hPa | 0 mm | 1.34 m/s, 78° | 49 W/m² | - |
| 1778004126 | 14.44° C | 71% | 1007.8 hPa | 0 mm | 1.34 m/s, 13° | 58 W/m² | - |
| 1778003826 | 14.44° C | 70% | 1007.8 hPa | 0 mm | 1.79 m/s, 1° | 69 W/m² | - |
| 1778003526 | 14.44° C | 70% | 1007.8 hPa | 0 mm | 1.34 m/s, 41° | 81 W/m² | - |
| 1778003226 | 15° C | 70% | 1007.8 hPa | 0 mm | 1.34 m/s, 18° | 98 W/m² | - |
| 1778002926 | 15° C | 70% | 1007.8 hPa | 0 mm | 0.89 m/s, 9° | 109 W/m² | - |
| 1778002626 | 15° C | 70% | 1007.7 hPa | 0 mm | 1.34 m/s, 75° | 113 W/m² | - |
| 1778002326 | 15° C | 69% | 1007.7 hPa | 0 mm | 1.34 m/s, 77° | 107 W/m² | - |
| 1778002026 | 15° C | 69% | 1007.7 hPa | 0 mm | 1.34 m/s, 70° | 116 W/m² | - |
| 1778001726 | 15° C | 70% | 1007.6 hPa | 0 mm | 0.89 m/s, 4° | 148 W/m² | - |
| 1778001426 | 15° C | 70% | 1007.6 hPa | 0 mm | 1.34 m/s, 63° | 165 W/m² | - |
| 1778001126 | 15° C | 70% | 1007.7 hPa | 0 mm | 1.79 m/s, 10° | 171 W/m² | - |
| 1778000826 | 15° C | 70% | 1007.6 hPa | 0 mm | 1.34 m/s, 89° | 167 W/m² | - |
| 1778000526 | 15° C | 70% | 1007.7 hPa | 0 mm | 1.34 m/s, 72° | 181 W/m² | - |
| 1778000228 | 15° C | 70% | 1007.8 hPa | 0 mm | 1.79 m/s, 27° | 160 W/m² | - |
| 1777999926 | 15° C | 70% | 1007.7 hPa | 0 mm | 1.79 m/s, 2° | 167 W/m² | - |
| 1777999626 | 15.56° C | 69% | 1007.7 hPa | 0 mm | 1.79 m/s, 1° | 174 W/m² | - |
| 1777999326 | 15.56° C | 69% | 1007.8 hPa | 0 mm | 1.79 m/s, 82° | 207 W/m² | - |
| 1777999026 | 15.56° C | 70% | 1007.7 hPa | 0 mm | 1.34 m/s, 11° | 165 W/m² | - |
| 1777998726 | 15.56° C | 70% | 1007.7 hPa | 0 mm | 1.34 m/s, 12° | 264 W/m² | - |
| 1777998426 | 16.11° C | 70% | 1007.6 hPa | 0 mm | 0.89 m/s, 70° | 207 W/m² | - |
| 1777998126 | 16.11° C | 70% | 1007.6 hPa | 0 mm | 0.89 m/s, 78° | 207 W/m² | - |
* Rain latest hour (hover to see other rain measurements)
** Current wind speed in m/s (hover to see current wind gust speed)